When you browse on this site, cookies collect data to enhance your experience and personalize the content and advertising you see.
Visit our Privacy Policy to learn more. By continuing to use the site, you agree to this use of cookies and data.
  • In Germany
  • List of Countries
  • For 7 days
  • Water Temperature
  • Satellite Maps
  • Weather Map
  • Weather Widgets
  • user-avatar
    Login

    Hourly Weather Kanye

    Today, 22 January, Tuesday

    Time Temperature Precipitation Wind Pressure Humidity
    00:00 +24°C° 0 mm 2 mps 652 mmHg 32%
    01:00 +23°C° 0 mm 1 mps 652 mmHg 33%
    02:00 +23°C° 0 mm 1 mps 652 mmHg 33%
    03:00 +22°C° 0 mm 1 mps 652 mmHg 34%
    04:00 +22°C° 0 mm 1 mps 651 mmHg 35%
    05:00 +19°C° 0 mm 0 mps 651 mmHg 36%
    06:00 +23°C° 0 mm 1 mps 652 mmHg 33%
    07:00 +25°C° 0 mm 2 mps 652 mmHg 30%
    08:00 +26°C° 0 mm 3 mps 653 mmHg 31%
    09:00 +28°C° 0 mm 3 mps 653 mmHg 28%
    10:00 +30°C° 0 mm 2 mps 654 mmHg 24%
    11:00 +32°C° 0 mm 2 mps 654 mmHg 20%
    12:00 +34°C° 0 mm 3 mps 654 mmHg 18%
    13:00 +35°C° 0 mm 3 mps 653 mmHg 17%
    14:00 +36°C° 0 mm 4 mps 653 mmHg 15%
    15:00 +36°C° 0 mm 3 mps 652 mmHg 14%
    16:00 +36°C° 0 mm 3 mps 652 mmHg 14%
    17:00 +36°C° 0 mm 2 mps 651 mmHg 14%
    18:00 +35°C° 0 mm 2 mps 651 mmHg 15%
    19:00 +32°C° 0 mm 2 mps 650 mmHg 17%
    20:00 +30°C° 0 mm 2 mps 650 mmHg 19%
    21:00 +29°C° 0 mm 2 mps 650 mmHg 19%
    22:00 +28°C° 0 mm 2 mps 650 mmHg 20%
    23:00 +27°C° 0 mm 2 mps 650 mmHg 20%

    Tomorrow, 23 January, Wednesday

    Time Temperature Precipitation Wind Pressure Humidity
    00:00 +26°C° 0 mm 2 mps 650 mmHg 20%
    01:00 +26°C° 0 mm 2 mps 649 mmHg 19%
    02:00 +25°C° 0 mm 2 mps 649 mmHg 19%
    03:00 +25°C° 0 mm 2 mps 649 mmHg 20%
    04:00 +24°C° 0 mm 1 mps 649 mmHg 22%
    05:00 +23°C° 0 mm 1 mps 649 mmHg 23%
    06:00 +25°C° 0 mm 1 mps 649 mmHg 22%
    07:00 +27°C° 0 mm 1 mps 650 mmHg 20%
    08:00 +29°C° 0 mm 1 mps 651 mmHg 19%
    09:00 +31°C° 0 mm 2 mps 652 mmHg 17%
    10:00 +34°C° 0 mm 2 mps 652 mmHg 16%
    11:00 +36°C° 0 mm 3 mps 652 mmHg 14%
    12:00 +37°C° 0 mm 2 mps 652 mmHg 14%
    13:00 +38°C° 0 mm 2 mps 652 mmHg 14%
    14:00 +39°C° 0 mm 2 mps 651 mmHg 13%
    15:00 +39°C° 0 mm 2 mps 651 mmHg 14%
    16:00 +38°C° 0 mm 2 mps 650 mmHg 15%
    17:00 +37°C° 0 mm 2 mps 649 mmHg 16%
    18:00 +36°C° 0 mm 2 mps 649 mmHg 18%
    19:00 +33°C° 0 mm 1 mps 649 mmHg 20%
    20:00 +31°C° 0 mm 1 mps 648 mmHg 23%
    21:00 +30°C° 0 mm 1 mps 648 mmHg 24%
    22:00 +29°C° 0 mm 1 mps 648 mmHg 25%
    23:00 +28°C° 0 mm 1 mps 648 mmHg 26%

    Day after tomorrow, 24 January, Thursday

    Time Temperature Precipitation Wind Pressure Humidity
    00:00 +28°C° 0 mm 1 mps 648 mmHg 26%
    01:00 +28°C° 0 mm 2 mps 648 mmHg 26%
    02:00 +27°C° 0 mm 2 mps 648 mmHg 26%
    03:00 +27°C° 0 mm 2 mps 648 mmHg 26%
    04:00 +27°C° 0 mm 2 mps 648 mmHg 26%
    05:00 +26°C° 0 mm 2 mps 648 mmHg 26%
    06:00 +28°C° 0 mm 2 mps 649 mmHg 25%
    07:00 +29°C° 0 mm 3 mps 650 mmHg 25%
    08:00 +30°C° 0 mm 4 mps 650 mmHg 24%
    09:00 +32°C° 0 mm 4 mps 651 mmHg 23%
    10:00 +34°C° 0 mm 4 mps 651 mmHg 21%
    11:00 +36°C° 0 mm 5 mps 652 mmHg 20%
    12:00 +36°C° 0 mm 4 mps 651 mmHg 19%
    13:00 +37°C° 0 mm 4 mps 651 mmHg 18%
    14:00 +38°C° 0 mm 3 mps 650 mmHg 16%
    15:00 +38°C° 0 mm 2 mps 650 mmHg 16%
    16:00 +38°C° 0 mm 2 mps 650 mmHg 15%
    17:00 +39°C° 0 mm 1 mps 649 mmHg 14%
    18:00 +37°C° 0 mm 2 mps 649 mmHg 16%
    19:00 +35°C° 0 mm 2 mps 649 mmHg 19%
    20:00 +33°C° 0 mm 3 mps 648 mmHg 22%
    21:00 +31°C° 0 mm 3 mps 649 mmHg 23%
    22:00 +31°C° 0 mm 2 mps 649 mmHg 24%
    23:00 +30°C° 0 mm 2 mps 650 mmHg 25%

    25 January, Friday

    Time Temperature Precipitation Wind Pressure Humidity
    00:00 +29°C° 0 mm 2 mps 649 mmHg 30%
    01:00 +28°C° 0 mm 3 mps 649 mmHg 36%
    02:00 +26°C° 0 mm 3 mps 649 mmHg 41%
    03:00 +26°C° 0 mm 4 mps 649 mmHg 45%
    04:00 +25°C° 0 mm 4 mps 649 mmHg 48%
    05:00 +25°C° 0 mm 5 mps 650 mmHg 51%
    06:00 +25°C° 0 mm 5 mps 650 mmHg 47%
    07:00 +26°C° 0 mm 6 mps 651 mmHg 43%
    08:00 +27°C° 0 mm 7 mps 652 mmHg 39%
    09:00 +29°C° 0 mm 7 mps 652 mmHg 36%
    10:00 +32°C° 0 mm 7 mps 653 mmHg 32%
    11:00 +34°C° 0 mm 7 mps 653 mmHg 29%
    12:00 +35°C° 0 mm 6 mps 653 mmHg 25%
    13:00 +38°C° 0 mm 6 mps 652 mmHg 22%
    14:00 +40°C° 0 mm 5 mps 652 mmHg 19%
    15:00 +37°C° 0 mm 4 mps 651 mmHg 22%
    16:00 +36°C° 0 mm 3 mps 650 mmHg 25%
    17:00 +33°C° 0 mm 1 mps 649 mmHg 28%
    18:00 +32°C° 0.1 mm 1 mps 649 mmHg 31%
    19:00 +30°C° 0.1 mm 1 mps 649 mmHg 34%
    20:00 +29°C° 0.1 mm 1 mps 649 mmHg 37%
    21:00 +28°C° 0 mm 2 mps 649 mmHg 40%
    22:00 +27°C° 0 mm 3 mps 650 mmHg 42%
    23:00 +27°C° 0 mm 4 mps 650 mmHg 45%

    26 January, Saturday

    Time Temperature Precipitation Wind Pressure Humidity
    00:00 +26°C° 0 mm 5 mps 650 mmHg 49%
    01:00 +25°C° 0 mm 5 mps 650 mmHg 53%
    02:00 +24°C° 0 mm 6 mps 650 mmHg 56%
    03:00 +23°C° 0 mm 5 mps 650 mmHg 57%
    04:00 +22°C° 0 mm 5 mps 650 mmHg 59%
    05:00 +22°C° 0 mm 5 mps 650 mmHg 60%
    06:00 +23°C° 0 mm 5 mps 650 mmHg 56%
    07:00 +24°C° 0 mm 6 mps 651 mmHg 53%
    08:00 +26°C° 0 mm 7 mps 652 mmHg 50%
    09:00 +28°C° 0 mm 7 mps 652 mmHg 45%
    10:00 +29°C° 0 mm 7 mps 653 mmHg 40%
    11:00 +32°C° 0 mm 7 mps 653 mmHg 36%
    12:00 +34°C° 0 mm 6 mps 653 mmHg 31%
    13:00 +36°C° 0 mm 6 mps 652 mmHg 27%
    14:00 +39°C° 0 mm 5 mps 652 mmHg 22%
    15:00 +36°C° 0.2 mm 5 mps 651 mmHg 25%
    16:00 +35°C° 0.2 mm 5 mps 650 mmHg 27%
    17:00 +33°C° 0.2 mm 4 mps 649 mmHg 30%
    18:00 +30°C° 0.3 mm 5 mps 649 mmHg 36%
    19:00 +28°C° 0.3 mm 5 mps 649 mmHg 41%
    20:00 +26°C° 0.3 mm 6 mps 649 mmHg 47%
    21:00 +26°C° 0 mm 5 mps 649 mmHg 47%
    22:00 +26°C° 0 mm 4 mps 649 mmHg 48%
    23:00 +25°C° 0 mm 4 mps 650 mmHg 48%

    27 January, Sunday

    Time Temperature Precipitation Wind Pressure Humidity
    00:00 +25°C° 0 mm 3 mps 649 mmHg 51%
    01:00 +24°C° 0 mm 3 mps 649 mmHg 55%
    02:00 +22°C° 0 mm 3 mps 649 mmHg 59%
    03:00 +21°C° 0.2 mm 4 mps 649 mmHg 65%
    04:00 +21°C° 0.2 mm 6 mps 650 mmHg 72%
    05:00 +20°C° 0.2 mm 7 mps 650 mmHg 78%
    06:00 +20°C° 0.1 mm 8 mps 650 mmHg 78%
    07:00 +21°C° 0.1 mm 8 mps 651 mmHg 77%
    08:00 +21°C° 0.1 mm 9 mps 651 mmHg 77%
    09:00 +22°C° 0 mm 9 mps 652 mmHg 72%
    10:00 +23°C° 0 mm 9 mps 652 mmHg 67%
    11:00 +24°C° 0 mm 9 mps 652 mmHg 62%
    12:00 +28°C° 0 mm 8 mps 652 mmHg 55%
    13:00 +31°C° 0 mm 8 mps 652 mmHg 47%
    14:00 +33°C° 0 mm 8 mps 652 mmHg 39%
    15:00 +34°C° 0 mm 7 mps 651 mmHg 38%
    16:00 +34°C° 0 mm 6 mps 651 mmHg 36%
    17:00 +35°C° 0 mm 5 mps 651 mmHg 34%
    18:00 +32°C° 2 mm 6 mps 650 mmHg 44%
    19:00 +28°C° 2 mm 6 mps 650 mmHg 54%
    20:00 +24°C° 2 mm 6 mps 649 mmHg 63%
    21:00 +23°C° 3.9 mm 6 mps 650 mmHg 68%
    22:00 +22°C° 3.9 mm 6 mps 651 mmHg 74%
    23:00 +22°C° 3.9 mm 6 mps 652 mmHg 79%
    Show more